Weather History for KAEX - February, 2013

Change the Weather History Date:

Wednesday, February 20, 2013

  Actual Average Record
Temperature  
Mean Temperature 51 °F 53 °F  
Max Temperature 57 °F 64 °F 82 °F (1986)
Min Temperature 44 °F 42 °F 24 °F (1910)
Degree Days  
Heating Degree Days 14 12  
Month to date heating degree days 238 284  
Since 1 July heating degree days 1346 1575  
Moisture  
Dew Point 31 °F    
Average Humidity 49    
Maximum Humidity 62    
Minimum Humidity 35    
Precipitation  
Precipitation T in 0.17 in 1.48 in (1967)
Month to date precipitation 4.10 3.18  
Year to date precipitation 15.15 8.40  
Snow  
Snow 0.00 in - T in (1959)
Month to date snowfall 0.0  
Since 1 July snowfall 0.0  
Snow Depth 0.00 in    
Sea Level Pressure  
Sea Level Pressure 30.12 in    
Wind  
Wind Speed 10 mph (East)    
Max Wind Speed 20 mph    
Max Gust Speed 26 mph    
Visibility 10 miles    
Events Rain    
T = Trace of Precipitation, MM = Missing Value Source: NWS Daily Summary

Daily Weather History Graph

Daily Weather History Graph

Search for Another Location

Airport or City:

Trip Planner

Search our weather history database for the weather conditions in past years. The results will help you decide how hot, cold, wet, or windy it might be!

Date:

Astronomy

Feb. 20, 2013 Rise Set
Actual Time 6:46 AM CST 6:01 PM CST
Civil Twilight 6:21 AM CST 6:26 PM CST
Nautical Twilight 5:53 AM CST 6:54 PM CST
Astronomical Twilight 5:25 AM CST 7:22 PM CST
Moon 1:34 PM CST (2/20) 2:55 AM CST (2/20)
Length of Visible Light 12h 04m
Length of Day
11h 15m
Waxing Gibbous, 76% of the Moon is Illuminated
Feb 20
Waxing Gibbous
Feb 25
Full
Mar 4
Last Quarter
Mar 11
New
Mar 19
First Quarter

Hourly Weather History & Observations

Time (CST) Temp. Windchill Dew Point Humidity Pressure Visibility Wind Dir Wind Speed Gust Speed Precip Events Conditions
12:53 AM 48.0 °F - 33.1 °F 56% 30.25 in 10.0 mi NNE 4.6 mph - N/A   Clear
1:53 AM 46.9 °F - 34.0 °F 61% 30.17 in 10.0 mi ENE 11.5 mph - N/A   Clear
2:53 AM 48.0 °F - 33.1 °F 56% 30.17 in 10.0 mi East 5.8 mph - N/A   Clear
3:53 AM 46.9 °F - 30.9 °F 54% 30.19 in 10.0 mi East 6.9 mph - N/A   Clear
4:53 AM 45.0 °F 42.6 °F 32.0 °F 60% 30.21 in 10.0 mi ENE 4.6 mph - N/A   Clear
6:53 AM 45.0 °F 42.6 °F 30.9 °F 58% 30.24 in 10.0 mi East 4.6 mph - N/A   Scattered Clouds
7:53 AM 46.0 °F 41.0 °F 30.9 °F 56% 30.23 in 10.0 mi East 10.4 mph - N/A   Clear
8:53 AM 46.9 °F - 28.9 °F 50% 30.25 in 10.0 mi East 8.1 mph - N/A   Clear
9:53 AM 46.9 °F - 28.0 °F 48% 30.20 in 10.0 mi East 12.7 mph 21.9 mph 0.00 in Rain Light Rain
11:53 AM 54.0 °F - 27.0 °F 35% 30.17 in 10.0 mi East 12.7 mph 23.0 mph N/A   Clear
12:53 PM 55.9 °F - 28.0 °F 34% 30.13 in 10.0 mi ESE 13.8 mph - N/A   Mostly Cloudy
1:53 PM 55.9 °F - 28.0 °F 34% 30.15 in 10.0 mi East 5.8 mph - N/A   Overcast
2:53 PM 55.9 °F - 28.0 °F 34% 30.10 in 10.0 mi East 9.2 mph - N/A   Overcast
3:53 PM 55.0 °F - 30.0 °F 38% 30.06 in 10.0 mi East 11.5 mph - N/A   Overcast
4:53 PM 55.0 °F - 32.0 °F 42% 30.05 in 10.0 mi ENE 8.1 mph - N/A   Overcast
5:53 PM 54.0 °F - 32.0 °F 43% 30.04 in 10.0 mi ENE 10.4 mph - N/A   Overcast
6:53 PM 54.0 °F - 32.0 °F 43% 30.04 in 10.0 mi East 8.1 mph - N/A   Overcast
7:53 PM 54.0 °F - 33.1 °F 45% 30.03 in 10.0 mi East 8.1 mph - N/A   Overcast
8:53 PM 54.0 °F - 33.1 °F 45% 30.03 in 10.0 mi East 9.2 mph - N/A   Overcast
9:53 PM 54.0 °F - 34.0 °F 47% 30.00 in 10.0 mi East 10.4 mph - N/A   Overcast
10:53 PM 54.0 °F - 28.9 °F 38% 30.01 in 10.0 mi ESE 16.1 mph 21.9 mph N/A   Overcast
11:53 PM 54.0 °F - 30.0 °F 40% 29.99 in 10.0 mi ESE 16.1 mph - N/A   Overcast